Sumas, WA (98295)

9:59 AM PDT on March 24, 2017 (GMT -0700)
Hwy 1 @ McCallum | | Change Station

Elev 190 ft 49.03 °N, 122.30 °W | Updated 4 seconds ago

Overcast
Overcast
43.9 °F
Feels Like 44 °F
N
0.0
Wind Variable Wind from NNW
Gusts 3.0 mph

Today
High -- | Low -- °F
--% Chance of Precip.
Yesterday
High -- | Low -- °F
Precip. -- in
Pressure 29.77 in
Visibility 10.0 miles
Clouds Scattered Clouds 2700 ft
Overcast 3300 ft
Windchill 44 °F
Dew Point 42 °F
Humidity 94%
Rainfall 0.27 in
Snow Depth Not available.
7:02 AM 7:28 PM
Waning Crescent, 14% visible
METAR KBLI 241653Z 13008KT 10SM SCT027 OVC033 11/06 A2975 RMK AO2 SLP079 T01060061
Pressure 29.77 in
Visibility 10.0 miles
Clouds Scattered Clouds 2700 ft
Overcast 3300 ft
Windchill 44 °F
Dew Point 42 °F
Humidity 94%
Rainfall 0.27 in
Snow Depth Not available.
7:02 AM 7:28 PM
Waning Crescent, 14% visible
METAR KBLI 241653Z 13008KT 10SM SCT027 OVC033 11/06 A2975 RMK AO2 SLP079 T01060061

Get Severe Weather Alerts

Thanks for signing up!

Be on the lookout for a verification email in your inbox.

You'll start receiving the daily forecast at 8 AM.

×

10-Day Weather Forecast

Almanac

Astronomy

Mar. 24, 2017 Rise Set
Actual Time
Civil Twilight
Nautical Twilight
Astronomical Twilight
Moon
Length of Visible Light
Length of Day
Tomorrow will be .
, % of the Moon is Illuminated

Today's Extremes

State Highs State Lows

Community

WunderPhotos

Upload Photos

1,962,540 photos uploaded!

WunderBlog® & News

Nearby

Air Quality

  Air Quality AQ Index Pollutant
Not available.

Snow Depth

Station Depth Elevation

Earthquake Activity

City Distance Mag. Time & Date
Minimum magnitude displayed is 2.5.

Earthquake Activity

City Distance Mag. Time & Date
Minimum magnitude displayed is 2.5.

Coastal Water Temperatures

Place Temperature

Stations

Nearby Weather Stations

Station Location Temp. Windchill Dew Point Humidity Wind Precip. Elev Updated Type
                   

Watches & Warnings

There are currently no watches in effect.